Location: Poughquag
(41.6090°N, 73.6820°W)
Time: 16:49:18
(UTC-05:00)

S-56A Canister/Altair - Pass Details

Date: 29 November 2023
Orbit: 640 x 2488 km, 38.9° (Epoch: 26 February)

Event Time Altitude Azimuth Distance (km) Brightness Sun altitude
Rises 19:47:27 0° 273° (W) 3,853 12.1 -37.1°
Reaches altitude 10° 19:50:37 10° 257° (WSW) 3,162 11.3 -37.7°
Maximum altitude 19:56:14 21° 212° (SSW) 2,872 10.6 -38.7°
Enters shadow 20:01:27 14° 178° (S) 3,719 10.9 -39.7°
